• In Hungary
  • List of Countries
  • For 7 days
  • Water Temperature
  • Satellite Maps
  • Weather Map
  • News
  • Weather Widgets
  • user-avatar
    Login

    Hourly Weather Wien

    Today, 19 September, Wednesday

    Time Temperature Precipitation Wind Pressure Humidity
    00:00 +18°C° 0 mm 2 mps 746 mmHg 66%
    01:00 +17°C° 0 mm 2 mps 746 mmHg 67%
    02:00 +17°C° 0 mm 2 mps 746 mmHg 69%
    03:00 +16°C° 0 mm 1 mps 746 mmHg 70%
    04:00 +16°C° 0 mm 1 mps 746 mmHg 71%
    05:00 +18°C° 0 mm 1 mps 746 mmHg 71%
    06:00 +18°C° 0 mm 1 mps 746 mmHg 70%
    07:00 +19°C° 0 mm 1 mps 746 mmHg 69%
    08:00 +21°C° 0 mm 1 mps 747 mmHg 63%
    09:00 +23°C° 0 mm 1 mps 747 mmHg 57%
    10:00 +25°C° 0 mm 1 mps 747 mmHg 51%
    11:00 +26°C° 0 mm 1 mps 747 mmHg 49%
    12:00 +27°C° 0 mm 1 mps 747 mmHg 46%
    13:00 +28°C° 0 mm 1 mps 747 mmHg 43%
    14:00 +28°C° 0 mm 1 mps 746 mmHg 44%
    15:00 +28°C° 0 mm 1 mps 746 mmHg 44%
    16:00 +28°C° 0 mm 1 mps 746 mmHg 44%
    17:00 +26°C° 0.1 mm 1 mps 746 mmHg 49%
    18:00 +24°C° 0.1 mm 1 mps 746 mmHg 54%
    19:00 +22°C° 0.1 mm 1 mps 747 mmHg 60%
    20:00 +22°C° 0.1 mm 1 mps 747 mmHg 62%
    21:00 +21°C° 0.1 mm 1 mps 747 mmHg 64%
    22:00 +21°C° 0.1 mm 1 mps 747 mmHg 66%
    23:00 +20°C° 0 mm 1 mps 747 mmHg 67%

    Tomorrow, 20 September, Thursday

    Time Temperature Precipitation Wind Pressure Humidity
    00:00 +20°C° 0 mm 1 mps 747 mmHg 69%
    01:00 +19°C° 0 mm 1 mps 747 mmHg 70%
    02:00 +19°C° 0 mm 1 mps 747 mmHg 72%
    03:00 +19°C° 0 mm 1 mps 747 mmHg 73%
    04:00 +18°C° 0 mm 1 mps 747 mmHg 74%
    05:00 +19°C° 0 mm 1 mps 747 mmHg 73%
    06:00 +19°C° 0 mm 1 mps 747 mmHg 72%
    07:00 +20°C° 0 mm 1 mps 747 mmHg 71%
    08:00 +20°C° 0 mm 0 mps 747 mmHg 64%
    09:00 +22°C° 0 mm 0 mps 747 mmHg 58%
    10:00 +24°C° 0 mm 0 mps 748 mmHg 51%
    11:00 +28°C° 0 mm 1 mps 747 mmHg 48%
    12:00 +29°C° 0 mm 1 mps 747 mmHg 45%
    13:00 +30°C° 0 mm 1 mps 747 mmHg 42%
    14:00 +29°C° 0 mm 1 mps 746 mmHg 42%
    15:00 +29°C° 0 mm 1 mps 746 mmHg 42%
    16:00 +29°C° 0 mm 1 mps 746 mmHg 42%
    17:00 +27°C° 0 mm 1 mps 746 mmHg 47%
    18:00 +25°C° 0 mm 1 mps 746 mmHg 52%
    19:00 +23°C° 0 mm 1 mps 746 mmHg 57%
    20:00 +23°C° 0 mm 1 mps 746 mmHg 59%
    21:00 +22°C° 0 mm 1 mps 746 mmHg 61%
    22:00 +21°C° 0 mm 1 mps 746 mmHg 63%
    23:00 +21°C° 0 mm 1 mps 746 mmHg 64%

    Day after tomorrow, 21 September, Friday

    Time Temperature Precipitation Wind Pressure Humidity
    00:00 +20°C° 0 mm 1 mps 745 mmHg 66%
    01:00 +20°C° 0 mm 1 mps 745 mmHg 67%
    02:00 +20°C° 0 mm 1 mps 745 mmHg 68%
    03:00 +18°C° 0 mm 2 mps 745 mmHg 69%
    04:00 +18°C° 0 mm 2 mps 744 mmHg 70%
    05:00 +18°C° 0 mm 2 mps 744 mmHg 70%
    06:00 +18°C° 0 mm 2 mps 744 mmHg 69%
    07:00 +19°C° 0 mm 2 mps 744 mmHg 68%
    08:00 +21°C° 0 mm 3 mps 744 mmHg 60%
    09:00 +24°C° 0 mm 3 mps 744 mmHg 52%
    10:00 +27°C° 0 mm 3 mps 744 mmHg 45%
    11:00 +28°C° 0 mm 4 mps 744 mmHg 41%
    12:00 +30°C° 0 mm 4 mps 743 mmHg 38%
    13:00 +32°C° 0 mm 4 mps 743 mmHg 34%
    14:00 +32°C° 0 mm 4 mps 743 mmHg 35%
    15:00 +30°C° 0 mm 4 mps 742 mmHg 37%
    16:00 +30°C° 0 mm 3 mps 742 mmHg 38%
    17:00 +28°C° 0 mm 3 mps 742 mmHg 43%
    18:00 +26°C° 0 mm 3 mps 742 mmHg 47%
    19:00 +24°C° 0 mm 3 mps 742 mmHg 52%
    20:00 +23°C° 0 mm 2 mps 742 mmHg 54%
    21:00 +21°C° 0 mm 2 mps 742 mmHg 57%
    22:00 +21°C° 0 mm 2 mps 742 mmHg 59%
    23:00 +20°C° 0 mm 2 mps 742 mmHg 61%

    22 September, Saturday

    Time Temperature Precipitation Wind Pressure Humidity
    00:00 +20°C° 0 mm 2 mps 742 mmHg 63%
    01:00 +20°C° 0 mm 1 mps 742 mmHg 65%
    02:00 +20°C° 0 mm 1 mps 742 mmHg 65%
    03:00 +19°C° 0 mm 2 mps 742 mmHg 66%
    04:00 +19°C° 0 mm 2 mps 742 mmHg 67%
    05:00 +19°C° 0.1 mm 2 mps 743 mmHg 69%
    06:00 +19°C° 0.1 mm 3 mps 744 mmHg 72%
    07:00 +20°C° 0.1 mm 4 mps 744 mmHg 74%
    08:00 +19°C° 0.1 mm 5 mps 745 mmHg 73%
    09:00 +19°C° 0.1 mm 6 mps 745 mmHg 73%
    10:00 +18°C° 0.1 mm 7 mps 746 mmHg 72%
    11:00 +17°C° 0.1 mm 7 mps 747 mmHg 71%
    12:00 +15°C° 0.1 mm 6 mps 747 mmHg 71%
    13:00 +14°C° 0.1 mm 6 mps 747 mmHg 70%
    14:00 +13°C° 0.7 mm 6 mps 748 mmHg 73%
    15:00 +12°C° 0.7 mm 5 mps 748 mmHg 75%
    16:00 +10°C° 0.7 mm 5 mps 749 mmHg 78%
    17:00 +11°C° 0.6 mm 4 mps 749 mmHg 79%
    18:00 +11°C° 0.6 mm 4 mps 750 mmHg 80%
    19:00 +11°C° 0.6 mm 4 mps 750 mmHg 80%
    20:00 +10°C° 0.1 mm 3 mps 750 mmHg 81%
    21:00 +10°C° 0.1 mm 3 mps 750 mmHg 81%
    22:00 +10°C° 0.1 mm 3 mps 751 mmHg 81%
    23:00 +10°C° 0 mm 3 mps 751 mmHg 81%

    23 September, Sunday

    Time Temperature Precipitation Wind Pressure Humidity
    00:00 +9°C° 0 mm 3 mps 750 mmHg 82%
    01:00 +9°C° 0 mm 2 mps 750 mmHg 83%
    02:00 +9°C° 0 mm 2 mps 750 mmHg 83%
    03:00 +9°C° 0 mm 2 mps 750 mmHg 83%
    04:00 +9°C° 0 mm 1 mps 750 mmHg 83%
    05:00 +10°C° 0 mm 1 mps 750 mmHg 81%
    06:00 +10°C° 0 mm 1 mps 750 mmHg 78%
    07:00 +11°C° 0 mm 1 mps 749 mmHg 76%
    08:00 +13°C° 0 mm 2 mps 749 mmHg 68%
    09:00 +14°C° 0 mm 3 mps 748 mmHg 60%
    10:00 +17°C° 0 mm 4 mps 748 mmHg 52%
    11:00 +17°C° 0 mm 5 mps 747 mmHg 48%
    12:00 +19°C° 0 mm 6 mps 746 mmHg 43%
    13:00 +20°C° 0 mm 6 mps 745 mmHg 39%
    14:00 +20°C° 0 mm 7 mps 744 mmHg 40%
    15:00 +20°C° 0 mm 7 mps 743 mmHg 41%
    16:00 +20°C° 0 mm 7 mps 742 mmHg 42%
    17:00 +19°C° 0 mm 6 mps 741 mmHg 45%
    18:00 +17°C° 0 mm 6 mps 741 mmHg 49%
    19:00 +16°C° 0 mm 6 mps 740 mmHg 52%
    20:00 +15°C° 0 mm 6 mps 739 mmHg 55%
    21:00 +15°C° 0 mm 7 mps 739 mmHg 57%
    22:00 +15°C° 0 mm 7 mps 738 mmHg 59%
    23:00 +15°C° 0 mm 7 mps 737 mmHg 62%

    24 September, Monday

    Time Temperature Precipitation Wind Pressure Humidity
    00:00 +15°C° 0 mm 6 mps 737 mmHg 65%
    01:00 +15°C° 0 mm 6 mps 736 mmHg 68%
    02:00 +15°C° 0 mm 6 mps 737 mmHg 69%
    03:00 +15°C° 0 mm 5 mps 737 mmHg 70%
    04:00 +15°C° 0 mm 5 mps 738 mmHg 71%
    05:00 +14°C° 0.5 mm 5 mps 738 mmHg 73%
    06:00 +13°C° 0.5 mm 5 mps 738 mmHg 75%
    07:00 +12°C° 0.5 mm 5 mps 739 mmHg 77%
    08:00 +12°C° 1.2 mm 4 mps 739 mmHg 79%
    09:00 +11°C° 1.2 mm 4 mps 739 mmHg 80%
    10:00 +11°C° 1.2 mm 4 mps 739 mmHg 81%
    11:00 +11°C° 1.5 mm 3 mps 739 mmHg 81%
    12:00 +11°C° 1.5 mm 3 mps 740 mmHg 81%
    13:00 +11°C° 1.5 mm 3 mps 740 mmHg 81%
    14:00 +12°C° 0.2 mm 4 mps 739 mmHg 79%
    15:00 +13°C° 0.2 mm 5 mps 739 mmHg 77%
    16:00 +13°C° 0.2 mm 6 mps 739 mmHg 75%
    17:00 +13°C° 0 mm 6 mps 739 mmHg 75%
    18:00 +13°C° 0 mm 6 mps 739 mmHg 76%
    19:00 +13°C° 0 mm 6 mps 739 mmHg 76%
    20:00 +11°C° 0 mm 7 mps 740 mmHg 74%
    21:00 +11°C° 0 mm 7 mps 741 mmHg 73%
    22:00 +10°C° 0 mm 7 mps 742 mmHg 71%
    23:00 +10°C° 0 mm 7 mps 743 mmHg 70%
    Show more